DW9665 Sarajevo BA current weather conditions

sailwx.info

Wind from 180

Air temperature 16.1° C
Dewpoint 13.8° C

Last reported at 2014-Jul-24 04:47 UTC.
Time now 2014-Jul-24 06:27 UTC

Location: N 43°50' E 018°21'.
View on Google Maps.

See reports from other nearby stations

  
Tides and Currents Weather Stations Pressure Air Temp Water Temp Dewpoint Dewpoint Depression Visibility Wind Speed Wind Dir Waves Ship Positions
date/time (UTC)wind fromknots sea level pressurealtimeterstation pressurevisibilityair tempwater tempwave heightnotes
2014-Jul-24 04:47 180 16.1
2014-Jul-24 04:32 112 15.6
2014-Jul-24 04:17 270 1 gusting 1 15.6
2014-Jul-24 04:02 135 15.6
2014-Jul-24 03:47 158 0 gusting 1 15.6
2014-Jul-24 03:32 112 15.6
2014-Jul-24 03:17 068 15.6
2014-Jul-24 03:02 270 1 gusting 1 15.6
2014-Jul-24 02:47 270 15.6
2014-Jul-24 02:32 090 16.1
2014-Jul-24 02:17 270 16.1
2014-Jul-24 02:02 270 16.7
2014-Jul-24 01:47 270 16.7
2014-Jul-24 01:32 158 16.7
2014-Jul-24 01:17 180 16.7
2014-Jul-24 01:02 180 16.7
2014-Jul-24 00:47 158 17.2
2014-Jul-24 00:32 292 17.2
2014-Jul-24 00:17 270 0 gusting 1 17.2
2014-Jul-24 00:02 180 17.2
2014-Jul-23 23:47 158 0 gusting 2 17.8
2014-Jul-23 23:32 135 0 gusting 1 17.8
2014-Jul-23 23:17 135 0 gusting 3 17.8
2014-Jul-23 23:02 180 3 gusting 4 18.3
2014-Jul-23 22:47 068 18.3
2014-Jul-23 22:32 045 18.3
2014-Jul-23 22:17 270 0 gusting 4 18.9
2014-Jul-23 22:02 292 1 gusting 2 18.9
2014-Jul-23 21:47 180 18.9
2014-Jul-23 21:32 18.9
2014-Jul-23 21:17 18.9
2014-Jul-23 21:02 338 18.9
2014-Jul-23 20:47 135 19.4
2014-Jul-23 20:32 270 0 gusting 2 19.4
2014-Jul-23 20:17 270 19.4
2014-Jul-23 20:02 158 19.4
2014-Jul-23 19:47 292 0 gusting 1 18.9
2014-Jul-23 19:32 270 18.9
2014-Jul-23 19:02 292 19.4
2014-Jul-23 18:47 270 2 gusting 5 19.4
2014-Jul-23 18:32 292 1 gusting 7 19.4
2014-Jul-23 18:17 270 3 gusting 6 19.4
2014-Jul-23 18:02 270 1 gusting 8 19.4
2014-Jul-23 17:47 270 1 gusting 8 20.0
2014-Jul-23 17:32 270 3 gusting 7 20.0
2014-Jul-23 17:17 292 3 gusting 7 20.0
2014-Jul-23 17:02 338 4 gusting 7 20.0
2014-Jul-23 16:47 270 3 gusting 6 20.0
2014-Jul-23 16:32 270 3 gusting 9 20.0
2014-Jul-23 16:17 270 5 gusting 6 20.6
2014-Jul-23 16:02 338 1 gusting 8 20.6
2014-Jul-23 15:47 338 2 gusting 8 20.6
2014-Jul-23 15:32 270 1 gusting 8 20.6
2014-Jul-23 15:17 180 2 gusting 7 21.1
2014-Jul-23 15:02 022 2 gusting 14 21.1
2014-Jul-23 14:47 315 5 gusting 16 21.7
2014-Jul-23 14:32 338 11 gusting 20 22.2
2014-Jul-23 14:17 338 3 gusting 7 24.4
2014-Jul-23 14:02 135 2 gusting 10 24.4
2014-Jul-23 13:47 022 5 gusting 7 24.4
2014-Jul-23 13:32 24.4
2014-Jul-23 13:17 338 3 gusting 4 23.9
2014-Jul-23 13:02 068 2 gusting 10 22.8
2014-Jul-23 12:47 315 6 gusting 6 22.8
2014-Jul-23 12:32 180 4 gusting 9 22.8
2014-Jul-23 12:17 292 5 gusting 7 22.8
2014-Jul-23 12:02 292 4 gusting 8 22.2
2014-Jul-23 11:47 270 0 gusting 9 22.8
2014-Jul-23 11:32 045 4 gusting 7 22.2
2014-Jul-23 11:17 270 3 gusting 7 22.2
2014-Jul-23 11:02 270 2 gusting 9 22.2
2014-Jul-23 10:47 022 2 gusting 7 22.2
2014-Jul-23 10:32 270 6 gusting 9 21.1
2014-Jul-23 10:17 21.1
2014-Jul-23 10:02 022 1 gusting 6 21.7
2014-Jul-23 09:47 270 1 gusting 4 21.1
2014-Jul-23 09:32 270 20.6
2014-Jul-23 09:17 338 0 gusting 6 20.0
2014-Jul-23 09:02 338 1 gusting 3 20.0
2014-Jul-23 08:47 338 1 gusting 4 18.9
2014-Jul-23 08:32 270 3 gusting 3 18.9
2014-Jul-23 08:17 270 0 gusting 5 19.4
2014-Jul-23 08:02 180 0 gusting 4 18.3
2014-Jul-23 07:47 270 2 gusting 6 17.8
2014-Jul-23 07:32 180 0 gusting 2 18.3
2014-Jul-23 07:17 17.8
2014-Jul-23 07:02 135 17.2
2014-Jul-23 06:47 158 16.7
2014-Jul-23 06:32 158 16.7
2014-Jul-23 06:17 270 16.7
2014-Jul-23 06:02 292 16.1
2014-Jul-23 05:47 270 0 gusting 1 16.1
2014-Jul-23 05:32 292 15.6
2014-Jul-23 05:17 270 1 gusting 2 15.6
2014-Jul-23 05:02 270 15.6
2014-Jul-23 04:47 292 1 gusting 2 15.6
2014-Jul-23 04:32 180 0 gusting 2 15.6
2014-Jul-23 04:17 292 15.6
2014-Jul-23 04:02 270 15.6
2014-Jul-23 03:47 270 15.6
2014-Jul-23 03:32 270 15.6
2014-Jul-23 03:17 180 0 gusting 3 15.6
2014-Jul-23 03:02 158 15.6
2014-Jul-23 02:47 158 15.6
2014-Jul-23 02:32 292 1 gusting 1 15.6
2014-Jul-23 02:17 270 1 gusting 3 15.6
2014-Jul-23 02:02 158 2 gusting 3 15.6
2014-Jul-23 01:47 158 0 gusting 3 15.6
2014-Jul-23 01:32 112 0 gusting 1 15.6
2014-Jul-23 01:17 158 0 gusting 1 15.6
2014-Jul-23 01:02 158 0 gusting 2 15.6
2014-Jul-23 00:47 158 15.6
2014-Jul-23 00:32 338 15.6
2014-Jul-23 00:17 180 15.6
2014-Jul-23 00:02 292 1 gusting 3 15.6
2014-Jul-22 23:47 270 16.1
2014-Jul-22 23:32 135 16.1
2014-Jul-22 23:17 16.1
2014-Jul-22 23:02 292 0 gusting 2 16.1
2014-Jul-22 22:47 270 16.7
2014-Jul-22 22:32 270 1 gusting 1 16.7
2014-Jul-22 22:17 135 16.7
2014-Jul-22 22:02 270 16.7
2014-Jul-22 21:47 135 1 gusting 4 17.2
2014-Jul-22 21:32 022 16.7
2014-Jul-22 21:17 338 16.7
2014-Jul-22 21:02 112 17.2
2014-Jul-22 20:47 180 17.2
2014-Jul-22 20:32 158 17.2
2014-Jul-22 20:17 17.8
2014-Jul-22 20:02 135 17.8
2014-Jul-22 19:47 338 17.8
2014-Jul-22 19:32 270 0 gusting 6 17.8
2014-Jul-22 19:17 180 4 gusting 3 17.8
2014-Jul-22 19:02 090 17.8
2014-Jul-22 18:47 158 1 gusting 6 17.8
2014-Jul-22 18:32 180 2 gusting 9 17.8
2014-Jul-22 18:17 022 0 gusting 17 18.3
2014-Jul-22 18:02 270 0 gusting 17 20.6
2014-Jul-22 17:47 270 11 gusting 11 21.7
2014-Jul-22 17:32 270 4 gusting 7 22.8
2014-Jul-22 17:17 292 3 gusting 5 23.3
2014-Jul-22 17:02 338 2 gusting 9 23.3
2014-Jul-22 16:47 315 5 gusting 9 23.3
2014-Jul-22 16:32 338 5 gusting 10 23.3
2014-Jul-22 16:17 338 5 gusting 6 24.4
2014-Jul-22 16:02 292 2 gusting 7 24.4
2014-Jul-22 15:47 292 1 gusting 5 25.0
2014-Jul-22 15:32 292 3 gusting 6 25.6
2014-Jul-22 15:17 315 2 gusting 6 25.6
2014-Jul-22 15:02 270 0 gusting 9 25.0
2014-Jul-22 14:47 270 3 gusting 5 25.6
2014-Jul-22 14:32 338 2 gusting 5 25.6
2014-Jul-22 14:17 292 1 gusting 8 24.4
2014-Jul-22 14:02 022 1 gusting 1 25.6
2014-Jul-22 13:47 135 24.4
2014-Jul-22 13:32 292 4 gusting 5 23.3
2014-Jul-22 13:17 292 22.8
2014-Jul-22 13:02 292 6 gusting 7 22.2
2014-Jul-22 12:47 158 5 gusting 11 23.9
2014-Jul-22 12:32 270 3 gusting 6 24.4
2014-Jul-22 12:17 112 2 gusting 3 25.0
2014-Jul-22 12:02 090 25.0
2014-Jul-22 11:47 292 1 gusting 10 25.0
2014-Jul-22 11:32 180 0 gusting 7 25.6
2014-Jul-22 11:17 270 2 gusting 6 25.6
2014-Jul-22 11:02 180 3 gusting 6 25.0
2014-Jul-22 10:47 25.0
2014-Jul-22 10:32 180 0 gusting 5 25.6
2014-Jul-22 10:17 270 4 gusting 4 24.4
2014-Jul-22 10:02 135 2 gusting 5 24.4
2014-Jul-22 09:47 045 1 gusting 5 24.4
2014-Jul-22 09:32 270 3 gusting 5 24.4
2014-Jul-22 09:17 022 1 gusting 5 23.9
2014-Jul-22 09:02 315 1 gusting 4 23.3
2014-Jul-22 08:47 270 2 gusting 6 22.2
2014-Jul-22 08:32 292 2 gusting 3 22.8
2014-Jul-22 08:17 022 0 gusting 7 21.7
2014-Jul-22 08:02 270 5 gusting 5 21.7
2014-Jul-22 07:47 270 21.7
2014-Jul-22 07:32 270 3 gusting 8 21.1
2014-Jul-22 07:17 135 7 gusting 11 21.7
2014-Jul-22 07:02 112 6 gusting 11 20.6
2014-Jul-22 06:47 158 6 gusting 8 20.0
2014-Jul-22 06:32 112 3 gusting 4 20.6
2014-Jul-22 06:17 045 0 gusting 3 19.4
2014-Jul-22 06:02 045 2 gusting 3 18.9